Location: Marcé
(47.5801°N, 0.3280°W)
Time: 19:21:51
(UTC+01:00)

Courier 1B - Pass Details

Date: 01 December 2021
Orbit: 962 x 1209 km, 28.3° (Epoch: 21 January)

Event Time Altitude Azimuth Distance (km) Brightness Sun altitude
Rises 21:00:51 0° 238° (WSW) 3,857 11.2 -37.8°
Reaches altitude 10° 21:05:10 10° 215° (SW) 2,843 10.1 -38.5°
Enters shadow 21:06:21 12° 206° (SSW) 2,668 9.9 -38.7°
